Location: Newark
(52.2090°N, 4.1550°W)
Time: 14:40:38
(UTC+00:00)

Explorer 7 - Pass Details

Date: 17 September 2019
Orbit: 485 x 680 km, 50.3° (Epoch: 21 October)

Event Time Altitude Azimuth Distance (km) Brightness Sun altitude
Exits shadow 04:54:50 11° 274° (W) 2,050 9.1 -9.7°
Maximum altitude 04:59:22 47° 202° (SSW) 894 7.6 -9.0°
Drops below altitude 10° 05:04:04 10° 129° (SE) 2,111 10.3 -8.3°
Sets 05:06:28 0° 124° (SE) 3,013 11.3 -8.0°
